Weather History for Bloomington, IN

Change the Weather History Date:

Monday, September 12, 2011

  Actual Average Record
Temperature  
Mean Temperature 70 °F 67 °F  
Max Temperature 85 °F 80 °F 91 °F (1999)
Min Temperature 55 °F 55 °F 45 °F (2007)
Degree Days  
Heating Degree Days 0 1  
Month to date heating degree days 19 8  
Since 1 July heating degree days 19 15  
Cooling Degree Days 5 4  
Month to date cooling degree days 69 59  
Year to date cooling degree days 1147 876  
Growing Degree Days 20 (Base 50)    
Moisture  
Dew Point 57 °F    
Average Humidity 69    
Maximum Humidity 100    
Minimum Humidity 37    
Precipitation  
Precipitation 0.00 in 0.13 in 2.00 in (2006)
Month to date precipitation 0.75 1.32  
Year to date precipitation 39.37 34.51  
Sea Level Pressure  
Sea Level Pressure 30.04 in    
Wind  
Wind Speed 4 mph (WSW)    
Max Wind Speed 13 mph    
Max Gust Speed 18 mph    
Visibility 6 miles    
Events Fog    
T = Trace of Precipitation, MM = Missing Value Source: NWS Daily Summary

Daily Weather History Graph

Daily Weather History Graph

Search for Another Location

Airport:

Trip Planner

Search our weather history database for the weather conditions in past years. The results will help you decide how hot, cold, wet, or windy it might be!

Date:

Astronomy

Sep. 12, 2011 Rise Set
Actual Time 7:24 AM EDT 8:00 PM EDT
Civil Twilight 6:57 AM EDT 8:26 PM EDT
Nautical Twilight 6:26 AM EDT 8:58 PM EDT
Astronomical Twilight 5:53 AM EDT 9:31 PM EDT
Moon 7:49 PM EDT (9/12) 7:40 AM EDT (9/12)
Length of Visible Light 13h 29m
Length of Day
12h 35m
Full, 100% of the Moon is Illuminated
Sep 12
Full
Sep 20
Last Quarter
Sep 27
New
Oct 3
First Quarter
Oct 11
Full

Hourly Weather History & Observations

Time (EDT) Temp. Heat Index Dew Point Humidity Pressure Visibility Wind Dir Wind Speed Gust Speed Precip Events Conditions
12:04 AM 59.0 °F - 57.2 °F 94% 30.07 in 1.5 mi Calm Calm - N/A   Clear
12:19 AM 57.2 °F - 57.2 °F 100% 30.07 in 0.5 mi Calm Calm - N/A Fog Fog
12:27 AM 59.0 °F - 57.2 °F 94% 30.06 in 0.2 mi Calm Calm - N/A Fog Fog
12:33 AM 57.2 °F - 57.2 °F 100% 30.06 in 1.2 mi Calm Calm - N/A   Partly Cloudy
12:40 AM 57.2 °F - 57.2 °F 100% 30.06 in 3.0 mi Calm Calm - N/A   Partly Cloudy
12:47 AM 57.2 °F - 55.4 °F 94% 30.06 in 1.8 mi Calm Calm - N/A   Clear
12:53 AM 59.0 °F - 57.0 °F 93% 30.04 in 1.8 mi Calm Calm - N/A   Clear
12:57 AM 59.0 °F - 57.2 °F 94% 30.06 in 3.0 mi Calm Calm - N/A   Clear
1:53 AM 57.9 °F - 57.0 °F 97% 30.04 in 7.0 mi Calm Calm - N/A   Clear
2:53 AM 57.9 °F - 57.0 °F 97% 30.05 in 5.0 mi Calm Calm - N/A   Clear
3:07 AM 59.0 °F - 57.2 °F 94% 30.06 in 2.0 mi Calm Calm - N/A   Clear
3:17 AM 57.2 °F - 57.2 °F 100% 30.06 in 4.0 mi Calm Calm - N/A   Clear
3:53 AM 59.0 °F - 57.9 °F 96% 30.04 in 8.0 mi Calm Calm - N/A   Clear
4:53 AM 57.0 °F - 55.9 °F 96% 30.04 in 8.0 mi Calm Calm - N/A   Clear
5:38 AM 55.4 °F - 55.4 °F 100% 30.06 in 2.5 mi Calm Calm - N/A   Clear
5:48 AM 55.4 °F - 53.6 °F 94% 30.07 in 3.0 mi Calm Calm - N/A   Clear
5:53 AM 55.0 °F - 54.0 °F 96% 30.06 in 2.5 mi Calm Calm - N/A   Clear
6:03 AM 55.4 °F - 53.6 °F 94% 30.07 in 1.2 mi Calm Calm - N/A   Clear
6:18 AM 57.2 °F - 55.4 °F 94% 30.07 in 4.0 mi Calm Calm - N/A   Clear
6:53 AM 59.0 °F - 57.0 °F 93% 30.06 in 6.0 mi Calm Calm - N/A   Clear
7:53 AM 57.0 °F - 55.9 °F 96% 30.08 in 4.0 mi Calm Calm - N/A   Clear
8:53 AM 64.0 °F - 61.0 °F 90% 30.10 in 7.0 mi Calm Calm - N/A   Clear
9:53 AM 69.1 °F - 61.0 °F 75% 30.09 in 10.0 mi Calm Calm - N/A   Clear
10:53 AM 75.0 °F - 60.1 °F 60% 30.09 in 10.0 mi WNW 3.5 mph - N/A   Clear
12:53 PM 81.0 °F 81.1 °F 57.9 °F 45% 30.07 in 10.0 mi West 6.9 mph - N/A   Partly Cloudy
1:53 PM 82.9 °F 82.1 °F 55.9 °F 39% 30.04 in 10.0 mi SSW 10.4 mph - N/A   Mostly Cloudy
2:53 PM 84.0 °F 83.0 °F 55.9 °F 38% 30.02 in 10.0 mi WSW 11.5 mph 16.1 mph N/A   Mostly Cloudy
4:53 PM 84.0 °F 82.9 °F 55.0 °F 37% 29.98 in 10.0 mi West 4.6 mph - N/A   Partly Cloudy
5:53 PM 82.9 °F 82.0 °F 55.0 °F 38% 29.97 in 10.0 mi WSW 8.1 mph - N/A   Clear
6:53 PM 81.0 °F 80.7 °F 55.0 °F 41% 29.97 in 10.0 mi SW 4.6 mph - N/A   Clear
7:53 PM 75.9 °F - 57.0 °F 52% 29.97 in 10.0 mi SW 4.6 mph - N/A   Clear
8:53 PM 72.0 °F - 57.9 °F 61% 29.97 in 10.0 mi SSW 4.6 mph - N/A   Clear
9:53 PM 71.1 °F - 57.0 °F 61% 29.99 in 10.0 mi SW 5.8 mph - N/A   Clear
11:53 PM 66.9 °F - 57.0 °F 70% 29.98 in 10.0 mi WSW 3.5 mph - N/A   Clear